Temp
-12 -12 -13 -13 -13 -14 -14 -14 -14 -14 -13 -14 -14 -14 -14 -14 -14 -15 -15 -15 -16 -16 -17 -17 -17 -16 -17 -18 -20 -21 -21 -21 -21 -21 -21 -22 -22 -23 -23 -23 -23 -23 -24
-12 -12 -14 -13 -14 -14 -13 -14 -13 -14 -14 -14 -14 -14 -14 -14 -15 -15 -16 -16 -17 -18 -17 -17 -16 -17 -19 -20 -21 -21 -21 -21 -21 -22 -22 -23 -23 -23 -23 -23 -24 -24 -25
-13 -13 -12 -12 -14 -15 -14 -14 -13 -14 -13 -14 -14 -14 -15 -15 -16 -17 -17 -18 -18 -17 -17 -17 -19 -20 -20 -20 -21 -21 -21 -22 -22 -22 -23 -23 -23 -23 -24 -24 -25 -26 -26
-13 -12 -12 -13 -14 -15 -14 -14 -14 -14 -14 -14 -15 -15 -15 -16 -17 -18 -18 -18 -17 -17 -18 -20 -20 -20 -21 -21 -21 -22 -22 -22 -23 -23 -23 -23 -23 -24 -25 -25 -26 -26 -27
-13 -14 -14 -15 -15 -15 -14 -14 -14 -15 -15 -15 -15 -15 -17 -18 -18 -18 -17 -17 -18 -19 -20 -20 -20 -21 -21 -22 -22 -22 -22 -23 -23 -23 -23 -24 -25 -25 -26 -26 -27 -28 -28
-16 -16 -14 -15 -15 -15 -15 -15 -15 -15 -15 -15 -16 -17 -18 -18 -18 -17 -18 -19 -19 -20 -20 -21 -21 -22 -22 -22 -22 -23 -23 -23 -23 -24 -24 -25 -25 -26 -27 -28 -28 -29 -29
-15 -15 -15 -14 -15 -14 -14 -15 -15 -15 -16 -17 -18 -18 -17 -17 -18 -19 -20 -20 -20 -20 -21 -22 -22 -22 -22 -22 -23 -23 -23 -24 -24 -25 -26 -26 -27 -27 -28 -29 -29 -29 -29
-16 -16 -15 -15 -15 -15 -15 -15 -15 -17 -17 -17 -17 -18 -19 -20 -20 -20 -20 -20 -21 -21 -22 -22 -22 -22 -22 -23 -23 -24 -25 -25 -25 -26 -27 -28 -28 -29 -29 -29 -30 -30 -30
-16 -16 -15 -15 -15 -15 -16 -17 -17 -17 -18 -19 -19 -19 -19 -19 -20 -20 -21 -21 -21 -21 -22 -22 -22 -23 -23 -23 -24 -25 -25 -26 -26 -27 -28 -29 -29 -30 -30 -30 -30 -31 -32
-16 -16 -16 -16 -17 -17 -17 -17 -18 -19 -18 -19 -19 -19 -20 -20 -21 -21 -21 -21 -22 -22 -22 -23 -23 -24 -24 -24 -24 -24 -25 -26 -27 -28 -29 -30 -30 -30 -31 -31 -31 -32 -34
-17 -17 -17 -17 -17 -18 -19 -18 -18 -18 -18 -19 -19 -20 -20 -20 -21 -21 -22 -22 -22 -22 -23 -23 -23 -23 -24 -24 -24 -25 -26 -27 -28 -29 -30 -30 -31 -31 -31 -31 -33 -34 -35
-17 -19 -19 -19 -18 -18 -18 -18 -18 -18 -19 -19 -20 -20 -20 -21 -21 -21 -22 -22 -23 -23 -23 -23 -23 -24 -24 -25 -25 -26 -27 -28 -29 -30 -30 -31 -31 -31 -32 -33 -34 -35 -37
-19 -18 -18 -18 -18 -18 -18 -18 -18 -19 -19 -20 -20 -21 -21 -21 -22 -22 -22 -23 -23 -23 -23 -24 -24 -24 -24 -25 -26 -27 -28 -29 -30 -30 -31 -31 -32 -32 -33 -34 -35 -36 -38
-18 -18 -18 -18 -18 -18 -18 -19 -19 -20 -20 -20 -21 -21 -21 -22 -22 -22 -23 -23 -24 -23 -24 -24 -24 -25 -25 -26 -26 -27 -29 -29 -30 -31 -31 -32 -32 -33 -34 -35 -36 -37 -38
-18 -18 -18 -18 -19 -19 -19 -20 -20 -20 -21 -21 -21 -21 -21 -22 -22 -23 -24 -24 -24 -24 -25 -25 -25 -25 -26 -26 -27 -28 -29 -30 -31 -31 -32 -32 -33 -34 -35 -37 -37 -38 -39
-19 -18 -18 -19 -19 -20 -20 -20 -20 -21 -21 -21 -21 -22 -22 -23 -23 -24 -24 -24 -24 -25 -25 -25 -25 -26 -26 -27 -27 -29 -30 -31 -32 -32 -33 -33 -34 -35 -37 -38 -38 -39 -39
-18 -19 -19 -19 -20 -20 -20 -20 -21 -21 -21 -21 -22 -23 -23 -23 -24 -24 -24 -25 -25 -25 -25 -25 -26 -26 -26 -27 -28 -29 -30 -31 -32 -33 -33 -34 -35 -36 -38 -38 -39 -39 -39
-19 -19 -19 -19 -20 -20 -20 -21 -21 -21 -21 -22 -22 -23 -24 -24 -24 -24 -25 -25 -25 -25 -25 -25 -26 -27 -27 -28 -29 -30 -31 -32 -33 -33 -34 -34 -35 -37 -38 -39 -39 -39 -39
-19 -20 -20 -20 -20 -20 -21 -21 -21 -21 -22 -22 -23 -24 -24 -24 -25 -25 -25 -25 -25 -25 -25 -26 -27 -27 -28 -29 -30 -31 -32 -33 -33 -34 -35 -35 -36 -38 -39 -39 -39 -39 -40
-20 -20 -20 -20 -21 -21 -21 -21 -21 -22 -22 -22 -23 -24 -24 -25 -25 -25 -26 -26 -26 -26 -26 -27 -28 -28 -29 -30 -31 -32 -33 -33 -34 -34 -35 -35 -37 -39 -39 -39 -39 -40 -40
-21 -20 -21 -21 -21 -22 -21 -21 -22 -22 -23 -23 -23 -24 -24 -25 -25 -25 -26 -26 -26 -26 -27 -28 -28 -29 -30 -31 -32 -32 -33 -34 -34 -35 -35 -36 -37 -39 -40 -40 -40 -40 -40
-22 -22 -22 -22 -22 -21 -22 -22 -22 -23 -23 -23 -24 -24 -25 -25 -26 -26 -26 -27 -27 -27 -28 -28 -29 -30 -31 -31 -32 -33 -33 -34 -34 -35 -35 -37 -38 -39 -40 -40 -40 -40 -40
-21 -22 -22 -22 -22 -22 -22 -22 -22 -23 -23 -24 -25 -25 -25 -26 -26 -27 -27 -27 -27 -28 -28 -29 -30 -31 -31 -32 -33 -33 -34 -34 -35 -35 -36 -37 -38 -39 -40 -40 -40 -40 -40
-22 -22 -22 -22 -22 -23 -23 -23 -23 -24 -24 -25 -25 -25 -26 -26 -27 -27 -27 -27 -28 -29 -29 -30 -31 -31 -32 -32 -33 -34 -34 -35 -35 -36 -37 -37 -38 -39 -40 -40 -40 -40 -40
-22 -22 -22 -23 -23 -23 -23 -24 -24 -24 -25 -25 -26 -26 -26 -27 -27 -27 -28 -28 -29 -29 -30 -31 -31 -32 -32 -33 -34 -34 -35 -35 -36 -36 -37 -38 -39 -40 -40 -40 -40 -40 -39
-23 -23 -23 -23 -23 -24 -24 -24 -25 -25 -25 -26 -26 -26 -27 -27 -28 -28 -28 -29 -29 -30 -31 -31 -32 -32 -33 -34 -34 -34 -35 -36 -36 -37 -38 -38 -39 -40 -40 -40 -40 -39 -39
Height
5632 5639 5644 5650 5657 5664 5669 5670 5672 5675 5674 5674 5672 5672 5670 5665 5662 5659 5656 5653 5649 5645 5642 5638 5633 5629 5623 5618 5613 5609 5603 5596 5588 5579 5572 5564 5556 5548 5539 5530 5520 5510 5499
5621 5628 5634 5640 5647 5655 5660 5664 5663 5666 5666 5665 5663 5661 5658 5656 5653 5650 5646 5643 5639 5636 5632 5628 5623 5618 5614 5610 5605 5598 5592 5585 5578 5569 5559 5550 5542 5533 5524 5515 5504 5491 5478
5610 5618 5624 5632 5639 5647 5652 5652 5656 5656 5655 5655 5653 5651 5649 5647 5643 5640 5637 5633 5629 5625 5622 5617 5613 5610 5606 5600 5594 5587 5580 5572 5563 5554 5545 5537 5528 5519 5509 5496 5484 5472 5455
5600 5608 5616 5624 5631 5639 5643 5641 5646 5648 5645 5643 5643 5641 5639 5637 5634 5631 5628 5626 5623 5618 5613 5610 5607 5603 5597 5591 5583 5576 5567 5558 5550 5541 5531 5521 5510 5499 5489 5479 5469 5452 5437
5594 5603 5611 5618 5625 5631 5634 5636 5637 5638 5637 5635 5632 5630 5629 5628 5626 5625 5622 5618 5613 5610 5607 5604 5599 5593 5586 5579 5571 5563 5555 5547 5536 5526 5515 5504 5493 5483 5471 5460 5446 5431 5415
5591 5601 5606 5610 5618 5623 5626 5631 5631 5626 5626 5625 5622 5622 5622 5621 5618 5616 5612 5609 5609 5605 5600 5594 5590 5583 5575 5568 5561 5553 5543 5534 5523 5513 5501 5488 5475 5462 5448 5434 5419 5404 5394
5587 5596 5601 5608 5613 5619 5620 5622 5621 5620 5618 5618 5618 5618 5616 5614 5611 5611 5610 5605 5601 5596 5591 5585 5579 5572 5565 5558 5549 5538 5529 5519 5507 5493 5481 5466 5453 5439 5426 5411 5394 5376 5355
5585 5591 5596 5601 5605 5609 5610 5612 5611 5613 5614 5613 5614 5612 5610 5606 5606 5605 5600 5596 5592 5587 5581 5576 5570 5565 5556 5547 5536 5528 5517 5503 5489 5475 5460 5445 5429 5414 5399 5385 5368 5351 5330
5582 5588 5591 5596 5600 5603 5604 5606 5608 5608 5608 5611 5607 5604 5604 5603 5600 5596 5592 5588 5584 5579 5573 5566 5560 5553 5545 5539 5526 5512 5499 5486 5472 5455 5439 5423 5408 5393 5376 5360 5339 5320 5305
5578 5583 5588 5592 5595 5597 5602 5603 5603 5606 5605 5600 5601 5600 5600 5596 5593 5590 5585 5581 5577 5572 5566 5558 5550 5540 5529 5519 5509 5497 5485 5471 5456 5441 5425 5407 5390 5371 5350 5328 5310 5294 5275
5580 5582 5587 5591 5594 5597 5599 5601 5600 5600 5598 5598 5599 5596 5592 5590 5586 5582 5579 5574 5570 5562 5553 5544 5536 5526 5513 5502 5491 5479 5465 5452 5437 5421 5405 5389 5370 5350 5328 5306 5286 5269 5256
5579 5584 5589 5592 5593 5597 5596 5596 5595 5595 5596 5595 5591 5589 5588 5584 5581 5576 5570 5564 5556 5549 5541 5532 5521 5509 5497 5485 5474 5461 5447 5433 5418 5403 5386 5368 5349 5330 5309 5288 5268 5252 5239
5585 5588 5590 5591 5593 5593 5592 5592 5592 5592 5590 5590 5587 5585 5582 5577 5571 5565 5558 5552 5544 5536 5527 5516 5504 5493 5484 5472 5458 5443 5428 5414 5400 5385 5368 5350 5331 5311 5291 5274 5254 5239 5226
5587 5589 5590 5588 5586 5589 5589 5590 5590 5588 5587 5584 5580 5577 5571 5566 5561 5554 5549 5541 5531 5522 5514 5503 5491 5480 5469 5456 5440 5424 5410 5396 5382 5368 5353 5334 5314 5294 5273 5255 5242 5229 5219
5587 5586 5585 5586 5587 5587 5586 5588 5588 5583 5579 5576 5573 5567 5563 5557 5551 5544 5535 5525 5517 5507 5496 5488 5479 5466 5452 5439 5425 5410 5394 5380 5366 5351 5336 5318 5297 5277 5257 5242 5231 5221 5212
5585 5586 5586 5585 5584 5584 5583 5581 5578 5576 5574 5570 5565 5559 5553 5546 5538 5529 5522 5515 5505 5496 5488 5478 5466 5455 5444 5431 5416 5401 5383 5367 5351 5335 5317 5298 5280 5262 5246 5234 5224 5215 5208
5585 5585 5585 5583 5580 5580 5579 5576 5574 5571 5566 5561 5554 5547 5539 5533 5527 5521 5512 5502 5493 5484 5474 5463 5454 5443 5431 5417 5403 5387 5371 5353 5336 5319 5301 5282 5265 5249 5236 5227 5218 5210 5203
5582 5581 5579 5577 5576 5575 5573 5570 5566 5561 5554 5550 5543 5537 5531 5525 5517 5509 5499 5490 5480 5470 5461 5452 5442 5430 5417 5403 5388 5373 5358 5340 5323 5305 5286 5268 5251 5237 5227 5219 5211 5204 5196
5576 5575 5573 5571 5568 5565 5563 5559 5553 5549 5545 5539 5533 5528 5522 5514 5505 5495 5484 5475 5466 5458 5450 5439 5428 5417 5404 5389 5374 5359 5341 5325 5309 5291 5272 5255 5238 5226 5218 5210 5203 5195 5187
5571 5569 5568 5564 5559 5557 5554 5550 5545 5540 5535 5529 5523 5517 5510 5501 5492 5483 5474 5464 5455 5447 5438 5428 5416 5402 5388 5373 5358 5343 5328 5311 5295 5278 5260 5242 5226 5215 5208 5202 5194 5186 5178
5565 5564 5561 5557 5553 5550 5546 5541 5537 5531 5525 5518 5513 5506 5498 5490 5481 5473 5463 5453 5445 5435 5425 5413 5401 5388 5373 5357 5343 5329 5313 5297 5281 5265 5248 5230 5215 5205 5198 5191 5184 5176 5168
5560 5557 5553 5549 5545 5542 5537 5532 5526 5521 5516 5510 5503 5495 5486 5479 5470 5461 5451 5441 5430 5420 5411 5401 5387 5371 5357 5343 5329 5315 5300 5284 5269 5254 5237 5220 5205 5195 5189 5182 5175 5167 5158
5552 5548 5544 5540 5536 5532 5527 5522 5517 5511 5504 5498 5491 5484 5475 5466 5458 5450 5439 5428 5416 5405 5394 5383 5371 5356 5341 5327 5312 5298 5284 5270 5255 5240 5226 5210 5196 5185 5178 5172 5165 5157 5148
5542 5538 5534 5530 5527 5522 5517 5511 5505 5499 5493 5486 5478 5471 5463 5453 5444 5435 5425 5414 5402 5390 5379 5367 5355 5341 5328 5314 5299 5284 5269 5255 5241 5226 5212 5198 5186 5176 5168 5161 5153 5145 5137
5533 5528 5524 5520 5516 5510 5505 5499 5494 5487 5481 5473 5466 5457 5448 5439 5430 5421 5411 5400 5389 5378 5365 5353 5340 5328 5314 5300 5285 5270 5256 5241 5226 5212 5199 5186 5174 5164 5156 5149 5142 5135 5126
5522 5518 5514 5509 5504 5499 5494 5489 5483 5477 5469 5461 5454 5445 5436 5427 5417 5408 5398 5388 5378 5366 5353 5340 5328 5315 5301 5286 5271 5257 5243 5229 5215 5201 5189 5178 5167 5156 5147 5140 5131 5123 5115
Wind_Speed
59 56 54 52 49 49 47 51 49 48 45 49 47 48 52 60 52 51 58 57 50 45 39 41 43 48 48 49 50 52 54 56 58 62 66 68 69 65 64 70 74 78 81
59 57 54 52 47 46 34 49 43 51 47 54 50 51 57 52 49 57 48 43 35 36 41 44 50 48 50 50 50 52 54 58 62 65 65 62 61 66 72 77 81 83 86
56 56 56 53 48 40 46 48 44 45 47 51 52 52 45 49 46 39 34 33 38 41 45 44 47 50 49 49 52 56 59 62 62 59 60 65 69 75 80 82 82 86 90
53 55 53 50 42 40 46 43 47 47 41 46 46 45 46 38 31 29 33 38 41 45 45 46 48 48 49 52 55 59 58 55 58 65 69 75 78 81 82 83 86 91 93
47 47 36 40 40 45 47 46 46 52 50 50 48 42 30 25 28 33 38 41 40 44 46 46 45 48 51 54 53 51 54 61 67 73 77 79 80 82 83 88 90 92 95
35 32 35 35 39 33 40 39 52 55 48 39 30 22 23 28 33 37 39 40 41 38 41 44 47 49 47 46 52 57 63 69 72 75 77 79 81 85 88 90 93 96 99
30 35 29 29 26 39 33 48 49 41 29 18 16 22 25 27 30 33 32 32 37 40 42 44 44 41 48 54 60 65 70 72 73 76 79 82 85 89 90 93 97 102 107
30 23 25 30 33 42 40 46 34 21 10 13 19 23 23 23 25 30 32 35 37 39 40 41 44 49 55 60 65 65 67 72 77 79 83 86 88 91 94 98 102 106 109
27 31 30 34 33 32 28 22 18 12 13 15 16 18 21 25 29 30 31 33 35 37 41 45 51 55 59 60 65 69 74 78 80 81 84 87 89 93 97 100 106 109 98
25 27 22 21 22 20 18 9 8 10 14 13 18 22 26 25 25 26 28 31 35 39 44 48 53 57 60 64 71 76 80 83 83 82 84 87 91 95 100 106 109 100 87
26 22 21 18 9 2 6 7 8 12 15 18 20 19 19 21 23 25 30 35 40 45 49 53 55 59 64 70 75 80 83 84 84 84 86 89 91 97 103 107 103 91 77
19 16 11 7 4 5 3 6 10 14 15 15 14 16 17 19 25 29 35 39 44 48 51 55 59 64 68 74 79 84 86 85 84 84 86 89 95 101 104 103 91 78 66
13 10 8 7 7 4 6 9 10 9 9 10 10 13 19 23 27 32 36 41 46 50 54 57 63 67 71 77 83 86 88 87 86 86 88 92 98 102 100 93 76 66 56
12 9 5 2 2 4 4 4 3 5 6 8 13 17 22 27 31 36 41 45 49 53 56 60 65 70 76 82 87 90 91 89 88 88 90 95 101 100 94 81 63 55 43
6 5 3 3 4 4 3 5 5 6 10 15 20 24 27 31 35 38 43 48 53 56 59 63 67 74 80 86 89 92 91 89 88 89 91 97 98 95 82 64 53 45 38
5 4 7 7 6 3 3 6 9 12 16 20 24 28 31 35 38 42 46 51 54 56 60 65 70 76 81 86 90 91 88 86 86 89 92 95 94 86 65 52 47 43 40
7 9 8 6 3 5 8 11 15 18 22 25 29 31 35 39 42 45 49 52 55 58 62 67 73 78 83 87 89 89 87 85 86 89 93 94 91 74 53 46 43 42 43
10 10 9 7 7 9 11 15 19 24 28 32 34 37 40 43 46 48 52 55 57 61 65 70 74 79 85 88 89 86 83 83 85 89 91 92 86 63 46 42 42 44 45
12 13 14 15 15 16 18 20 24 28 32 34 36 39 42 45 48 51 55 57 59 63 67 72 76 81 85 86 86 83 82 82 86 87 89 89 79 55 43 43 43 46 47
15 17 19 20 20 21 22 24 27 32 35 37 39 41 45 47 50 54 56 57 60 64 68 72 77 81 84 84 82 80 81 82 83 84 87 85 72 51 44 45 46 47 48
20 23 25 24 24 25 26 29 32 35 38 39 42 44 48 49 52 55 56 58 62 66 69 74 78 82 82 82 81 80 81 83 83 83 84 80 67 49 45 46 46 46 50
27 27 28 28 28 30 31 34 36 37 39 43 45 46 47 49 52 54 56 60 65 68 71 75 79 81 82 82 81 81 81 82 82 83 82 76 63 50 45 46 47 48 51
33 34 33 33 33 34 35 37 38 39 40 43 45 47 48 49 51 53 56 62 66 69 73 77 79 80 81 81 82 82 81 81 81 82 80 73 61 50 45 46 48 49 52
33 34 36 36 37 37 38 40 41 41 41 44 45 47 49 51 53 55 58 63 67 70 74 77 79 79 80 80 80 81 82 80 80 81 79 73 61 50 46 46 48 51 55
37 37 36 37 38 39 41 42 42 42 43 44 46 48 51 53 54 57 60 64 67 71 74 77 79 79 80 81 80 80 81 80 80 80 78 72 61 54 50 50 51 52 54
40 39 39 38 40 42 42 42 43 44 44 45 48 50 53 55 56 58 61 64 68 71 74 78 80 81 81 80 80 80 79 78 78 78 75 69 58 51 46 45 46 49 53
Wind_Direction
233 236 238 240 237 234 241 249 256 259 263 267 269 280 283 287 280 272 276 280 280 275 265 267 278 285 297 309 310 307 301 299 298 300 300 301 302 304 304 306 306 305 304
229 232 234 237 238 231 238 252 249 258 263 267 279 279 283 275 279 280 278 275 267 260 270 277 285 303 311 310 303 299 299 301 301 301 303 304 303 304 305 305 305 305 305
225 229 235 239 237 227 236 247 255 262 267 266 275 272 276 274 279 273 267 256 262 269 277 302 313 314 305 302 302 301 301 302 304 306 305 304 305 306 306 306 307 307 308
222 226 232 235 232 221 240 251 252 259 270 271 266 266 267 268 262 254 259 267 274 288 309 312 309 303 300 301 302 303 307 308 308 309 309 308 308 307 307 307 308 308 307
221 225 230 235 225 235 233 252 251 256 265 254 260 268 256 245 252 262 271 284 306 313 309 301 302 303 303 306 309 312 311 311 312 311 310 309 307 307 308 307 307 307 308
226 217 218 234 230 230 233 251 255 256 249 264 255 240 246 264 268 280 304 312 305 298 301 304 305 307 311 314 314 314 315 314 311 309 310 308 308 307 309 308 310 311 314
217 221 221 217 229 239 244 255 246 254 249 229 251 262 273 292 306 307 298 299 304 304 306 309 313 315 316 316 317 316 315 313 311 312 311 310 310 309 310 313 314 316 319
215 199 206 232 218 239 239 244 248 223 247 272 286 305 311 310 302 301 305 307 310 314 318 320 319 315 317 318 316 314 314 317 318 315 314 313 314 314 315 315 317 320 321
197 204 218 223 227 233 237 213 213 261 307 311 314 309 305 306 308 312 316 320 323 322 321 319 318 317 316 319 323 324 325 323 321 318 316 316 316 317 317 320 322 323 321
188 185 199 196 189 194 206 233 329 321 295 312 308 311 306 315 320 322 326 325 318 316 317 317 318 321 323 326 326 325 323 323 321 319 318 318 319 320 322 324 325 323 320
148 159 173 172 158 92 10 329 293 300 309 310 308 315 323 324 327 326 322 320 319 319 321 322 323 325 327 327 325 325 325 324 323 322 321 321 322 324 326 326 325 323 321
129 110 97 99 122 211 259 296 306 308 308 308 316 318 321 324 321 322 320 319 321 322 322 324 327 329 329 329 327 327 326 326 325 324 323 323 325 327 327 327 325 322 320
119 134 146 154 180 237 298 309 299 291 306 307 312 318 317 317 320 319 319 319 320 323 325 327 330 330 329 329 329 329 328 328 326 326 326 326 327 328 328 327 325 323 321
143 143 151 124 26 293 269 260 272 282 285 307 313 315 318 320 320 321 319 321 324 326 327 329 331 332 332 332 331 329 329 328 327 326 326 327 328 329 329 328 327 326 327
138 121 123 191 207 191 186 217 247 275 307 316 321 320 319 319 318 318 322 326 327 329 331 331 331 333 334 332 331 330 329 327 327 327 328 329 331 331 330 327 329 332 333
135 177 192 184 169 197 256 287 305 309 310 309 310 314 317 318 320 322 325 325 328 329 330 331 332 333 333 331 330 329 328 327 327 328 329 332 333 332 329 326 329 332 333
188 202 198 193 219 263 271 290 292 296 304 308 312 316 318 320 319 321 325 327 328 329 331 332 332 331 331 331 330 329 328 327 328 330 332 334 333 332 326 324 329 330 329
214 218 219 233 256 274 285 291 300 310 313 313 316 317 317 318 321 324 326 326 330 331 330 329 329 330 330 330 330 330 329 328 329 332 334 335 333 329 321 322 326 328 328
232 233 237 241 250 265 278 293 304 309 310 313 314 315 317 319 322 324 326 327 328 328 328 327 329 330 330 330 330 330 330 329 331 334 335 335 332 325 316 319 323 325 327
251 258 260 261 264 271 285 297 304 309 312 315 317 317 318 320 322 324 324 326 327 327 327 328 329 329 330 331 331 330 330 331 333 335 336 334 330 321 313 315 318 323 327
266 266 269 275 280 285 293 300 306 310 314 316 317 318 320 319 320 320 322 325 327 327 327 328 328 329 331 332 331 330 331 333 334 336 335 333 328 316 308 312 316 321 326
279 277 280 285 287 290 296 302 306 311 313 314 316 317 316 316 318 321 322 324 326 326 326 327 328 330 332 332 330 330 331 333 334 336 335 333 327 315 305 308 313 316 322
299 294 290 288 289 291 296 301 305 308 310 312 313 313 314 316 318 319 321 323 324 324 325 327 329 332 332 331 329 329 331 333 333 334 334 333 327 318 308 305 307 312 318
300 300 297 293 292 297 301 304 305 306 308 310 312 312 314 315 316 317 319 321 323 324 325 327 331 332 331 329 328 329 330 331 331 332 332 332 326 318 312 309 311 315 315
298 298 298 298 298 299 301 303 304 305 308 310 312 313 314 315 315 315 318 321 323 324 325 328 330 330 328 328 328 328 330 330 329 330 331 331 326 319 316 314 312 312 314
303 300 300 300 301 303 303 304 304 308 310 312 313 314 313 313 313 315 318 321 323 324 325 327 329 328 327 327 327 328 328 327 327 328 328 328 323 316 313 312 314 318 320